AirNav   ProFlight Series 2 Aviation Headset
 
 1103 users online  

71PA YBP Heliport
York, Pennsylvania, USA

GOING TO YORK?


FAA INFORMATION EFFECTIVE 18 JUNE 2020

Location

FAA Identifier: 71PA
Lat/Long: 39-58-00.3520N 076-47-58.8900W
39-58.005867N 076-47.981500W
39.9667644,-76.7996917
(estimated)
Elevation: 410 ft. / 125 m (estimated)
Variation: 10W (1985)
From city: 1 mile NW of YORK, PA
Time zone: UTC -4 (UTC -5 during Standard Time)
Zip code: 17404

Heliport Operations

Heliport use: Private use. Permission required prior to landing
Activation date: 12/1972
Control tower: no
ARTCC: NEW YORK CENTER
FSS: WILLIAMSPORT FLIGHT SERVICE STATION
Attendance: UNATNDD
Wind indicator: yes
Segmented circle: yes

Heliport Communications

WX ASOS at THV (5 nm SW): 119.275 (717-792-5529)
WX ASOS at MDT (14 nm N): 118.8 (717-944-1372)
WX ASOS at CXY (15 nm N): PHONE 717-770-0880

Nearby radio navigation aids

VOR radial/distance  VOR name  Freq  Var
HARr158/23.6HARRISBURG VORTAC112.5010W
LRPr258/25.1LANCASTER VOR/DME117.3009W
EMIr024/29.5WESTMINSTER VORTAC117.9008W
RAVr206/36.4RAVINE VORTAC114.6011W

 
NDB name  Hdg/Dist  Freq  Var  ID
BELLGROVE212/30.332810WBZJ -... --.. .---

Heliport Services

Airframe service: NONE
Powerplant service: NONE

Runway Information

Helipad H1

Dimensions: 32 x 32 ft. / 10 x 10 m
Surface: asphalt, in fair condition
Latitude: 39-58.005867N
Longitude: 076-47.981500W
Elevation: 410.0 ft.
Traffic pattern: leftleft
Markings: none, in fair condition

Heliport Ownership and Management from official FAA records

Ownership: Privately-owned
Owner: YORK BUILDING PRODUCTS CO INC
1020 N HARTLEY
YORK, PA 17405
Phone 717-848-2831
Manager: TIMOTHY R. TATE
950 SMILE WAY
YORK, PA 17404
Phone 717-848-2831

Heliport Operational Statistics

Aircraft based on the field: 1
Helicopters: 1
    

Additional Remarks

A52-H1 PLINES E OF PROPERTY.
FOR CD CTC HARRISBURG APCH AT 800-932-0712.

Instrument Procedures

There are no published instrument procedures at 71PA.

Some nearby airports with instrument procedures:

KTHV - York Airport (5 nm SW)
N71 - Donegal Springs Airpark (13 nm NE)
KMDT - Harrisburg International Airport (14 nm N)
KCXY - Capital City Airport (15 nm N)
N94 - Carlisle Airport (22 nm NW)
 
Loc | Ops | Rwys | IFR | FBO | Links
Com | Nav | Svcs | Stats | Notes
Area around 71PA (YBP Heliport)
 
Road maps at: MapQuest Bing Google
 
Aerial photo
No photo
 
Sectional chart

 
Airport distance calculator
Flying to YBP Heliport? Find the distance to fly.

From to 71PA

Sunrise and sunset
Times for 06-Jul-2020
 Local
(UTC-4)
 Zulu
(UTC)
Morning civil twilight05:1409:14
Sunrise05:4609:46
Sunset20:3800:38
Evening civil twilight21:1001:10

Current date and time
Zulu (UTC)  06-Jul-2020 23:44:00
Local (UTC-4)  06-Jul-2020 19:44:00
 
METAR
KTHV 
5nm SW 
062305Z AUTO 27006KT 10SM CLR 27/16 A2997 RMK AO2 LTG DSNT E T02720156
KMDT 
14nm N 
062256Z 22010KT 10SM VCTS FEW040 SCT060 BKN100 BKN250 33/20 A2994 RMK AO2 SLP136 T03280200
KCXY 
15nm N 
062256Z 22009KT 10SM BKN060 33/18 A2995 RMK AO2 LTG DSNT ALQDS SLP138 T03280183
TAF
KMDT 
14nm N 
062130Z 0622/0718 17004KT P6SM VCTS SCT050CB TEMPO 0622/0702 3SM TSRA BKN025CB FM070300 VRB02KT P6SM SCT050 FM071000 VRB02KT 5SM BR BKN010 FM071500 15003KT P6SM BKN025
NOTAMs
Click for the latest NOTAMs
NOTAMs are issued by the DoD/FAA and will open in a separate window not controlled by AirNav.

 

 
 

Would you like to see your business listed on this page?

 If your business provides an interesting product or service to pilots, flight crews, aircraft, or users of the YBP Heliport, you should consider listing it here.  To start the listing process, click on the button below
 
Add a business
 

Other Pages about YBP Heliport

Update a link
 
Copyright © AirNav, LLC. All rights reserved. Privacy Policy  Contact